Retour au catalogue

STARLINK-31457

ActifCommunicationsVLEO
NORAD 59414·PAYLOAD·🇺🇸 United States

Lancé Apr 5, 2024 depuis Cape Canaveral Space Force Station

Loading…

Prochains Passages (prochaines 24 heures)

TLE

FraisSource: CelesTrak SupGP

Époque: Sep 15, 2026, 02:44 UTC

1 59414C 24064S   26258.11437500 -.00021788  00000+0 -78877-3 0  2588
2 59414  43.0043  59.5506 0001631 282.0001 115.4516 15.27605721    13

Suivez STARLINK-31457 en temps réel avec AllMySat

Download on the App Store